Corvallis, OR

12:40 PM PDT on July 26, 2017 (GMT -0700)
Corvallis Municipal

Weather History for KCVO - December, 2013

Change the Weather History Date:

Sunday, December 8, 2013

  Actual Average Record
Temperature  
Mean Temperature 12 °F -  
Max Temperature 21 °F 47 °F 62 °F (2015)
Min Temperature 3 °F 37 °F 3 °F (2013)
Degree Days  
Heating Degree Days 53    
Moisture  
Dew Point 8 °F    
Average Humidity 74    
Maximum Humidity 100    
Minimum Humidity 44    
Precipitation  
Precipitation 0.00 in - - ()
Sea Level Pressure  
Sea Level Pressure 30.51 in    
Wind  
Wind Speed 0 mph (ESE)    
Max Wind Speed 6 mph    
Max Gust Speed -    
Visibility 7 miles    
Events      
Averages and records for this station are not official NWS values.
T = Trace of Precipitation, MM = Missing Value Source: NWS Daily Summary

Daily Weather History Graph

Daily Weather History Graph

Search for Another Location

Airport or City:

Trip Planner

Search our weather history database for the weather conditions in past years. The results will help you decide how hot, cold, wet, or windy it might be!

Date:

Astronomy

Dec. 08, 2013 Rise Set
Actual Time 7:37 AM PST 4:33 PM PST
Civil Twilight 7:03 AM PST 5:06 PM PST
Nautical Twilight 6:27 AM PST 5:43 PM PST
Astronomical Twilight 5:52 AM PST 6:18 PM PST
Moon 11:49 AM PST (12/8) 11:41 PM PST (12/8)
Length of Visible Light 10h 02m
Length of Day
8h 56m
Waxing Crescent, 41% of the Moon is Illuminated
Dec 8
Waxing Crescent
Dec 9
First Quarter
Dec 17
Full
Dec 25
Last Quarter
Jan 1
New

Hourly Weather History & Observations

Time (PST) Temp. Windchill Dew Point Humidity Pressure Visibility Wind Dir Wind Speed Gust Speed Precip Events Conditions
12:15 AM - - - N/A% 30.42 in 0.5 mi Calm Calm - N/A   Unknown
12:35 AM - - - N/A% 30.42 in 1.0 mi Calm Calm - N/A   Clear
12:55 AM - - - N/A% 30.43 in 0.2 mi Calm Calm - N/A   Mostly Cloudy
1:15 AM - - - N/A% 30.42 in 1.2 mi Calm Calm - N/A   Clear
1:35 AM - - - N/A% 30.42 in 4.0 mi Calm Calm - N/A   Clear
1:55 AM - - - N/A% 30.43 in 0.5 mi Calm Calm - N/A   Unknown
2:15 AM - - - N/A% 30.43 in 0.8 mi Calm Calm - N/A   Unknown
2:35 AM - - - N/A% 30.43 in 7.0 mi Calm Calm - N/A   Clear
2:55 AM - - - N/A% 30.43 in 10.0 mi Calm Calm - N/A   Clear
3:15 AM - - - N/A% 30.44 in 5.0 mi Calm Calm - N/A   Clear
3:35 AM - - - N/A% 30.44 in 10.0 mi Calm Calm - N/A   Clear
3:55 AM - - - N/A% 30.45 in 3.0 mi Calm Calm - N/A   Clear
4:15 AM - - - N/A% 30.45 in 2.0 mi Calm Calm - N/A   Clear
4:35 AM - - - N/A% 30.46 in 3.0 mi Calm Calm - N/A   Clear
4:55 AM - - - N/A% 30.47 in 1.0 mi Calm Calm - N/A   Clear
5:15 AM - - - N/A% 30.47 in 0.8 mi Calm Calm - N/A   Unknown
5:35 AM - - - N/A% 30.48 in 3.0 mi Calm Calm - N/A   Clear
5:55 AM - - - N/A% 30.48 in 10.0 mi Calm Calm - N/A   Clear
6:15 AM - - - N/A% 30.48 in 4.0 mi Calm Calm - N/A   Clear
6:35 AM - - - N/A% 30.49 in 10.0 mi Calm Calm - N/A   Clear
6:55 AM - - - N/A% 30.50 in 3.0 mi Calm Calm - N/A   Scattered Clouds
7:15 AM - - - N/A% 30.51 in 1.0 mi Calm Calm - N/A   Overcast
7:35 AM - - - N/A% 30.50 in 10.0 mi Calm Calm - N/A   Partly Cloudy
7:55 AM - - - N/A% 30.50 in 10.0 mi Calm Calm - N/A   Clear
8:15 AM - - - N/A% 30.50 in 10.0 mi Calm Calm - N/A   Clear
8:35 AM - - - N/A% 30.51 in 10.0 mi Calm Calm - N/A   Clear
8:55 AM - - - N/A% 30.51 in 10.0 mi Calm Calm - N/A   Clear
9:15 AM - - - N/A% 30.53 in 10.0 mi Calm Calm - N/A   Clear
9:35 AM - - - N/A% 30.53 in 10.0 mi Calm Calm - N/A   Clear
9:55 AM - - - N/A% 30.53 in 10.0 mi Calm Calm - N/A   Clear
10:15 AM - - - N/A% 30.53 in 10.0 mi Calm Calm - N/A   Clear
10:35 AM - - - N/A% 30.53 in 10.0 mi Calm Calm - N/A   Clear
10:55 AM - - - N/A% 30.52 in 10.0 mi Calm Calm - N/A   Clear
11:15 AM - - - N/A% 30.52 in - Calm Calm - N/A   Unknown
11:35 AM - - - N/A% 30.51 in - Calm Calm - N/A   Unknown
11:55 AM - - - N/A% 30.51 in - Calm Calm - N/A   Unknown
12:15 PM - - - N/A% 30.51 in - Calm Calm - N/A   Unknown
12:35 PM - - - N/A% 30.50 in - Calm Calm - N/A   Unknown
12:55 PM - - - N/A% 30.51 in 10.0 mi Calm Calm - N/A   Clear
1:15 PM 17.6 °F 10.7 °F 15.8 °F 93% 30.51 in 10.0 mi East 4.6 mph - N/A   Clear
1:35 PM 19.4 °F 11.5 °F 17.6 °F 93% 30.51 in 10.0 mi ESE 5.8 mph - N/A   Partly Cloudy
1:55 PM 17.6 °F 10.7 °F 12.2 °F 79% 30.51 in 10.0 mi ESE 4.6 mph - N/A   Mostly Cloudy
2:15 PM 21.2 °F - 8.6 °F 58% 30.51 in 10.0 mi Calm Calm - N/A   Overcast
2:35 PM 21.2 °F - 12.2 °F 68% 30.51 in 10.0 mi Calm Calm - N/A   Overcast
2:55 PM 19.4 °F - 15.8 °F 86% 30.52 in 10.0 mi Calm Calm - N/A   Overcast
3:15 PM 21.2 °F - 15.8 °F 80% 30.52 in 10.0 mi Calm Calm - N/A   Overcast
3:35 PM 21.2 °F - 10.4 °F 63% 30.52 in 10.0 mi Calm Calm - N/A   Overcast
3:55 PM 19.4 °F - 10.4 °F 68% 30.53 in 10.0 mi Calm Calm - N/A   Overcast
4:15 PM 19.4 °F - 10.4 °F 68% 30.53 in 10.0 mi Calm Calm - N/A   Overcast
4:35 PM 21.2 °F - 12.2 °F 68% 30.54 in 10.0 mi Calm Calm - N/A   Overcast
4:55 PM 21.2 °F - 15.8 °F 80% 30.54 in - Calm Calm - N/A   Overcast
5:15 PM - - - N/A% 30.53 in 10.0 mi Calm Calm - N/A   Overcast
5:35 PM 21.2 °F - 12.2 °F 68% 30.53 in 10.0 mi Calm Calm - N/A   Overcast
5:55 PM 19.4 °F - 14.0 °F 80% 30.54 in 10.0 mi Calm Calm - N/A   Overcast
6:15 PM 19.4 °F - 15.8 °F 86% 30.54 in 10.0 mi Calm Calm - N/A   Overcast
6:35 PM 19.4 °F - 12.2 °F 74% 30.54 in 10.0 mi Calm Calm - N/A   Mostly Cloudy
6:55 PM 17.6 °F - 12.2 °F 79% 30.55 in - Calm Calm - N/A   Scattered Clouds
7:15 PM 14.0 °F - 12.2 °F 93% 30.55 in 10.0 mi Calm Calm - N/A   Mostly Cloudy
7:35 PM 12.2 °F - 12.2 °F 100% 30.56 in 10.0 mi Calm Calm - N/A   Mostly Cloudy
7:55 PM 10.4 °F 4.0 °F -2.2 °F 57% 30.57 in 10.0 mi ESE 3.5 mph - N/A   Mostly Cloudy
8:15 PM 12.2 °F - 5.0 °F 73% 30.56 in 10.0 mi Calm Calm - N/A   Scattered Clouds
8:35 PM 8.6 °F - -7.6 °F 48% 30.57 in 10.0 mi Calm Calm - N/A   Clear
8:55 PM 8.6 °F - 1.4 °F 73% 30.57 in 10.0 mi Calm Calm - N/A   Clear
9:15 PM 10.4 °F - 1.4 °F 67% 30.57 in 10.0 mi Calm Calm - N/A   Clear
9:35 PM 8.6 °F - 6.8 °F 92% 30.57 in 6.0 mi Calm Calm - N/A   Clear
9:55 PM 10.4 °F - 10.4 °F 100% 30.58 in 1.2 mi Calm Calm - N/A   Clear
10:15 PM 10.4 °F - - N/A% 30.59 in 5.0 mi Calm Calm - N/A   Clear
10:35 PM 6.8 °F - - N/A% 30.59 in 0.8 mi Calm Calm - N/A   Unknown
10:55 PM 3.2 °F - - N/A% 30.60 in 0.2 mi Calm Calm - N/A   Unknown
11:15 PM 5.0 °F - -2.2 °F 72% 30.59 in 6.0 mi Calm Calm - N/A   Clear
11:35 PM 6.8 °F - -9.4 °F 48% 30.59 in 5.0 mi Calm Calm - N/A   Clear
11:55 PM 6.8 °F - -11.2 °F 44% 30.60 in 4.0 mi Calm Calm - N/A   Clear